| time (UTC) | temp F | wind direction | speed MPH | gust MPH | rain 1hr in | rain 24hr in | rain mn in | humidity % | barometer mb |
| 20260904060015 | 73 | 351 | 0.0 | 1.0 | 0.00 | 0.74 | 0.19 | 95 | 1011.9 |
| 20260904054540 | 73 | 351 | 0.0 | 0.0 | 0.00 | 0.98 | 0.19 | 95 | 1012.2 |
| 20260904053035 | 73 | 351 | 0.0 | 0.0 | 0.01 | 0.98 | 0.19 | 95 | 1012.3 |
| 20260904051533 | 73 | 351 | 0.0 | 0.0 | 0.10 | 0.98 | 0.19 | 94 | 1012.4 |
| 20260904050040 | 73 | 351 | 0.0 | 0.0 | 0.19 | 0.98 | 0.19 | 94 | 1012.3 |
| 20260904044530 | 73 | 351 | 0.0 | 0.0 | 0.19 | 0.98 | 0.19 | 93 | 1012.3 |
| 20260904043025 | 74 | 351 | 0.0 | 2.0 | 0.18 | 0.97 | 0.18 | 92 | 1012.3 |
| 20260904041526 | 75 | 110 | 0.0 | 11.0 | 0.09 | 0.88 | 0.09 | 91 | 1013.4 |
| 20260904040036 | 76 | 287 | 0.0 | 2.0 | 0.00 | 0.79 | 0.00 | 91 | 1013.7 |
| 20260904034534 | 76 | 201 | 0.0 | 0.0 | 0.00 | 0.79 | 0.79 | 91 | 1013.0 |
| 20260904033035 | 76 | 201 | 0.0 | 0.0 | 0.00 | 0.79 | 0.79 | 91 | 1013.1 |
| 20260904031534 | 76 | 201 | 0.0 | 0.0 | 0.00 | 0.79 | 0.79 | 91 | 1013.2 |
| 20260904030030 | 76 | 201 | 0.0 | 0.0 | 0.00 | 0.79 | 0.79 | 90 | 1013.4 |
| 20260904024529 | 76 | 201 | 0.0 | 1.0 | 0.00 | 0.79 | 0.79 | 90 | 1013.5 |
| 20260904023036 | 76 | 201 | 0.0 | 0.0 | 0.00 | 0.79 | 0.79 | 90 | 1013.3 |
| 20260904021539 | 76 | 201 | 0.0 | 0.0 | 0.00 | 0.79 | 0.79 | 90 | 1013.5 |
| 20260904020034 | 76 | 201 | 0.0 | 0.0 | 0.00 | 0.79 | 0.79 | 89 | 1013.2 |
| 20260904014533 | 77 | 201 | 0.0 | 0.0 | 0.00 | 0.79 | 0.79 | 88 | 1013.5 |
| 20260904013045 | 77 | 201 | 0.0 | 2.0 | 0.00 | 0.79 | 0.79 | 88 | 1013.6 |
| 20260904011535 | 77 | 202 | 0.0 | 0.0 | 0.00 | 0.79 | 0.79 | 88 | 1013.9 |
| 20260904010009 | 77 | 202 | 0.0 | 2.0 | 0.00 | 0.79 | 0.79 | 89 | 1014.0 |
| 20260904004506 | 77 | 251 | 0.0 | 0.0 | 0.00 | 0.79 | 0.79 | 89 | 1013.8 |
| 20260904003005 | 78 | 251 | 0.0 | 0.0 | 0.00 | 0.79 | 0.79 | 88 | 1013.8 |
| 20260904001503 | 78 | 251 | 0.0 | 0.0 | 0.00 | 0.79 | 0.79 | 87 | 1013.7 |
| 20260904000003 | 79 | 251 | 0.0 | 0.0 | 0.00 | 0.79 | 0.79 | 86 | 1013.6 |
| 20260903234521 | 79 | 242 | 0.0 | 2.0 | 0.00 | 0.79 | 0.79 | 85 | 1013.5 |
| 20260903233025 | 80 | 193 | 0.0 | 1.0 | 0.00 | 0.79 | 0.79 | 84 | 1013.5 |
| 20260903231516 | 80 | 193 | 0.0 | 2.0 | 0.00 | 0.79 | 0.79 | 83 | 1013.3 |
| 20260903230012 | 81 | 226 | 0.0 | 2.0 | 0.00 | 0.79 | 0.79 | 83 | 1013.1 |
| 20260903224516 | 82 | 182 | 0.0 | 5.0 | 0.00 | 0.79 | 0.79 | 82 | 1013.2 |
| 20260903223006 | 82 | 224 | 0.0 | 5.0 | 0.00 | 0.79 | 0.79 | 81 | 1013.1 |
| 20260903221504 | 83 | 279 | 0.0 | 2.0 | 0.00 | 0.79 | 0.79 | 80 | 1013.1 |
| 20260903220026 | 83 | 274 | 0.0 | 4.0 | 0.00 | 0.79 | 0.79 | 79 | 1013.1 |
| 20260903214534 | 83 | 292 | 0.0 | 4.0 | 0.00 | 0.79 | 0.79 | 79 | 1012.8 |
| 20260903213032 | 83 | 304 | 0.0 | 2.0 | 0.00 | 0.79 | 0.79 | 79 | 1012.7 |
| 20260903211518 | 84 | 156 | 0.0 | 2.0 | 0.00 | 0.79 | 0.79 | 77 | 1012.8 |
| 20260903210014 | 84 | 100 | 0.0 | 2.0 | 0.00 | 0.79 | 0.79 | 77 | 1012.9 |
| 20260903204511 | 85 | 203 | 0.0 | 2.0 | 0.00 | 0.79 | 0.79 | 74 | 1012.9 |
| 20260903203011 | 85 | 104 | 0.0 | 3.0 | 0.00 | 0.79 | 0.79 | 74 | 1013.0 |
| 20260903201510 | 85 | 27 | 0.0 | 2.0 | 0.00 | 0.79 | 0.79 | 75 | 1013.1 |
| 20260903200030 | 86 | 306 | 0.0 | 4.0 | 0.00 | 0.79 | 0.79 | 72 | 1013.3 |
| 20260903194528 | 86 | 160 | 0.0 | 4.0 | 0.00 | 0.79 | 0.79 | 72 | 1013.3 |
| 20260903193026 | 86 | 170 | 0.0 | 3.0 | 0.00 | 0.79 | 0.79 | 72 | 1013.5 |
| 20260903191535 | 85 | 209 | 0.0 | 3.0 | 0.00 | 0.79 | 0.79 | 71 | 1013.8 |
| 20260903190016 | 85 | 310 | 0.0 | 3.0 | 0.00 | 0.79 | 0.79 | 72 | 1014.2 |
| 20260903184512 | 85 | 269 | 0.0 | 7.0 | 0.00 | 0.79 | 0.79 | 74 | 1014.4 |
| 20260903183022 | 84 | 149 | 2.0 | 6.0 | 0.00 | 0.79 | 0.79 | 72 | 1014.3 |
| 20260903181531 | 84 | 275 | 1.0 | 3.0 | 0.00 | 0.81 | 0.79 | 73 | 1014.4 |
| 20260903180034 | 83 | 179 | 2.0 | 4.0 | 0.00 | 0.83 | 0.79 | 77 | 1014.4 |
| 20260903174528 | 83 | 179 | 1.0 | 5.0 | 0.00 | 0.87 | 0.79 | 77 | 1014.6 |
| 20260903173025 | 82 | 181 | 0.0 | 3.0 | 0.00 | 0.89 | 0.79 | 79 | 1014.7 |
| 20260903171535 | 82 | 321 | 0.0 | 4.0 | 0.01 | 0.89 | 0.79 | 79 | 1015.0 |
| 20260903170018 | 82 | 207 | 0.0 | 4.0 | 0.01 | 0.89 | 0.79 | 79 | 1015.2 |
| 20260903164519 | 81 | 205 | 1.0 | 4.0 | 0.01 | 0.89 | 0.79 | 81 | 1015.5 |
| 20260903163015 | 81 | 251 | 0.0 | 5.0 | 0.01 | 0.89 | 0.79 | 81 | 1015.7 |
| 20260903161531 | 81 | 271 | 0.0 | 6.0 | 0.00 | 0.88 | 0.78 | 82 | 1016.1 |
| 20260903160033 | 80 | 243 | 1.0 | 4.0 | 0.00 | 0.88 | 0.78 | 82 | 1016.4 |
| 20260903154532 | 80 | 300 | 1.0 | 5.0 | 0.00 | 0.88 | 0.78 | 83 | 1016.4 |
| 20260903153031 | 79 | 298 | 0.0 | 6.0 | 0.00 | 0.88 | 0.78 | 85 | 1016.4 |
| 20260903151529 | 78 | 114 | 0.0 | 4.0 | 0.00 | 0.88 | 0.78 | 87 | 1016.5 |
| 20260903150027 | 78 | 275 | 0.0 | 4.0 | 0.00 | 0.88 | 0.78 | 89 | 1016.3 |
| 20260903144523 | 77 | 196 | 1.0 | 4.0 | 0.00 | 0.88 | 0.78 | 91 | 1016.2 |
| 20260903143031 | 75 | 321 | 0.0 | 5.0 | 0.00 | 0.88 | 0.78 | 94 | 1015.9 |
| 20260903141531 | 74 | 273 | 1.0 | 6.0 | 0.00 | 0.88 | 0.78 | 96 | 1016.1 |
| 20260903140034 | 74 | 167 | 1.0 | 11.0 | 0.00 | 0.88 | 0.78 | 96 | 1016.3 |
| 20260903134530 | 73 | 240 | 1.0 | 4.0 | 0.00 | 0.88 | 0.78 | 97 | 1015.9 |
| 20260903133029 | 73 | 61 | 0.0 | 3.0 | 0.00 | 0.88 | 0.78 | 97 | 1015.5 |
| 20260903131531 | 73 | 262 | 0.0 | 5.0 | 0.00 | 0.88 | 0.78 | 97 | 1015.3 |
| 20260903130004 | 72 | 345 | 0.0 | 4.0 | 0.00 | 0.88 | 0.78 | 97 | 1015.8 |
| 20260903124503 | 72 | 221 | 0.0 | 3.0 | 0.00 | 0.88 | 0.78 | 97 | 1015.8 |
| 20260903123005 | 72 | 352 | 0.0 | 5.0 | 0.00 | 0.88 | 0.78 | 97 | 1016.0 |
| 20260903121512 | 72 | 202 | 0.0 | 5.0 | 0.00 | 0.88 | 0.78 | 97 | 1016.0 |
| 20260903120008 | 71 | 167 | 0.0 | 2.0 | 0.01 | 0.88 | 0.78 | 97 | 1015.5 |
| 20260903114508 | 71 | 203 | 1.0 | 3.0 | 0.01 | 0.88 | 0.78 | 97 | 1016.7 |
| 20260903113009 | 71 | 293 | 0.0 | 4.0 | 0.01 | 0.88 | 0.78 | 97 | 1016.6 |
| 20260903111506 | 70 | 175 | 0.0 | 2.0 | 0.01 | 0.88 | 0.78 | 97 | 1017.3 |
| 20260903110004 | 70 | 282 | 0.0 | 2.0 | 0.02 | 0.87 | 0.77 | 97 | 1017.5 |
| 20260903104504 | 70 | 198 | 0.0 | 3.0 | 0.02 | 0.87 | 0.77 | 97 | 1017.2 |
| 20260903103018 | 70 | 259 | 0.0 | 2.0 | 0.03 | 0.87 | 0.77 | 97 | 1016.7 |
| 20260903101513 | 70 | 228 | 0.0 | 2.0 | 0.03 | 0.87 | 0.77 | 96 | 1016.9 |
| 20260903100014 | 70 | 229 | 0.0 | 2.0 | 0.02 | 0.85 | 0.75 | 96 | 1017.1 |
| 20260903094514 | 70 | 224 | 0.0 | 2.0 | 0.15 | 0.85 | 0.75 | 96 | 1017.2 |
| 20260903093014 | 70 | 260 | 0.0 | 2.0 | 0.34 | 0.84 | 0.74 | 96 | 1017.3 |
| 20260903091508 | 70 | 260 | 0.0 | 0.0 | 0.34 | 0.84 | 0.74 | 96 | 1017.4 |
| 20260903090008 | 70 | 260 | 0.0 | 0.0 | 0.33 | 0.83 | 0.73 | 96 | 1017.3 |
| 20260903084504 | 70 | 260 | 0.0 | 2.0 | 0.20 | 0.70 | 0.60 | 96 | 1019.2 |
| 20260903083021 | 70 | 312 | 0.0 | 4.0 | 0.01 | 0.50 | 0.40 | 96 | 1019.1 |
| 20260903081518 | 70 | 347 | 0.0 | 0.0 | 0.01 | 0.50 | 0.40 | 96 | 1017.1 |
| 20260903080018 | 70 | 347 | 0.0 | 0.0 | 0.01 | 0.50 | 0.40 | 96 | 1016.9 |
| 20260903074520 | 70 | 347 | 0.0 | 0.0 | 0.01 | 0.50 | 0.40 | 96 | 1017.1 |
| 20260903073023 | 70 | 347 | 0.0 | 0.0 | 0.01 | 0.49 | 0.39 | 96 | 1017.3 |
| 20260903071513 | 70 | 347 | 0.0 | 0.0 | 0.03 | 0.49 | 0.39 | 96 | 1017.1 |
| 20260903070016 | 70 | 347 | 0.0 | 1.0 | 0.15 | 0.49 | 0.39 | 95 | 1017.4 |
| 20260903064521 | 70 | 195 | 0.0 | 2.0 | 0.39 | 0.49 | 0.39 | 95 | 1017.5 |
| 20260903063023 | 70 | 195 | 0.0 | 1.0 | 0.38 | 0.48 | 0.38 | 95 | 1017.3 |
| 20260903061539 | 71 | 195 | 0.0 | 2.0 | 0.36 | 0.46 | 0.36 | 95 | 1017.7 |